Regional Weather Roundup
Issued by NWS

Home | Current Version | Previous Version | Text Only | Print | Product List | Glossary Off
Versions: 1 2 3 4 5 6 7 8 9 10 11 12 13 14 15 16 17 18 19 20 21 22 23 24 25 26 27 28 29 30 31 32 33 34 35 36 37 38 39 40 41 42 43 44 45 46 47 48 49 50

000
ASUS43 KLMK 231910
RWRKY
KENTUCKY REGIONAL WEATHER ROUNDUP
NATIONAL WEATHER SERVICE LOUISVILLE KY
300 PM EDT TUE SEP 23 2014

NOTE "FAIR" INDICATES FEW OR NO CLOUDS BELOW 12,000 FEET
WITH NO SIGNIFICANT WEATHER AND/OR OBSTRUCTIONS TO VISIBILITY.

KYZ001>023-026-027-061>063-070>075-232000-
WESTERN AND SOUTH CENTRAL KENTUCKY

CITY           SKY/WX    TMP DP  RH WIND       PRES   REMARKS
PADUCAH        SUNNY     79  46  31 NE9       30.26F
HENDERSON      SUNNY     73  45  35 NE8       30.28F
OWENSBORO      SUNNY     74  45  35 E7        30.28F
HOPKINSVILLE   SUNNY     75  47  36 NE10      30.24F
BOWLING GREEN  SUNNY     76  47  35 NE9       30.27F
GLASGOW        SUNNY     73  43  33 E5        30.27F
$$

KYZ024-025-028>034-038-045-046-053-232000-
NORTH CENTRAL KENTUCKY

CITY           SKY/WX    TMP DP  RH WIND       PRES   REMARKS
LOUISVILLE/SDF SUNNY     73  43  33 NE9       30.30F
LOUISVILLE/LOU SUNNY     71  42  35 VRB5      30.30F
FORT KNOX      SUNNY     71  46  40 NE8       30.28F
$$

KYZ035>037-039>044-047>052-055>060-089>105-232000-
NORTHEAST KENTUCKY

CITY           SKY/WX    TMP DP  RH WIND       PRES   REMARKS
LEXINGTON      SUNNY     72  45  37 E10       30.30F
COVINGTON      SUNNY     70  41  34 NE6       30.32F
FRANKFORT      SUNNY     71  43  36 NE8       30.30F
$$

KYZ054-064>069-076>088-106>120-232000-
SOUTHEAST KENTUCKY

CITY           SKY/WX    TMP DP  RH WIND       PRES   REMARKS
JACKSON        SUNNY     68  48  48 VRB3      30.30F
LONDON         SUNNY     71  48  43 NE5       30.28F
SOMERSET       SUNNY     70  43  37 SE3       30.28F
MIDDLESBORO    SUNNY     73  51  47 S5        30.27F
MONTICELLO     CLEAR     73  50  44 VRB3      30.28F
$$



USA.gov is the U.S. government's official web portal to all federal, state and local government web resources and services.